QPF
0.00 0.00 0.00 0.00 0.00 0.00 0.00 0.00 0.00 0.00 0.00 0.00 0.00 0.00 0.00 0.00 0.00 0.00 0.00 0.00 0.00 0.00 0.00 0.00 0.01 0.03 0.03 0.01 0.00 0.00 0.01 0.02 0.03 0.06 0.23 0.21 0.16 0.15 0.09 0.07 0.06 0.02 0.01
0.00 0.00 0.00 0.00 0.00 0.00 0.00 0.00 0.00 0.00 0.00 0.00 0.00 0.00 0.00 0.00 0.00 0.00 0.01 0.01 0.00 0.00 0.00 0.00 0.00 0.01 0.00 0.01 0.01 0.01 0.03 0.02 0.04 0.10 0.31 0.33 0.26 0.16 0.11 0.11 0.06 0.02 0.02
0.00 0.00 0.00 0.00 0.00 0.00 0.00 0.00 0.00 0.00 0.00 0.00 0.00 0.00 0.00 0.00 0.01 0.00 0.00 0.00 0.00 0.00 0.00 0.00 0.00 0.00 0.00 0.00 0.01 0.02 0.00 0.06 0.11 0.11 0.18 0.32 0.28 0.16 0.10 0.07 0.03 0.03 0.00
0.00 0.00 0.00 0.00 0.00 0.00 0.00 0.00 0.00 0.00 0.00 0.00 0.00 0.00 0.00 0.00 0.00 0.00 0.00 0.00 0.00 0.00 0.00 0.01 0.00 0.00 0.00 0.00 0.02 0.01 0.01 0.04 0.07 0.11 0.17 0.19 0.15 0.11 0.05 0.02 0.01 0.03 0.00
0.00 0.00 0.00 0.00 0.00 0.00 0.00 0.00 0.00 0.00 0.00 0.00 0.00 0.00 0.00 0.00 0.00 0.00 0.00 0.00 0.00 0.00 0.00 0.00 0.00 0.00 0.01 0.03 0.01 0.01 0.01 0.06 0.08 0.09 0.14 0.07 0.05 0.03 0.01 0.00 0.00 0.00 0.00
0.00 0.00 0.00 0.00 0.00 0.00 0.00 0.00 0.00 0.00 0.00 0.00 0.00 0.00 0.01 0.04 0.02 0.00 0.00 0.00 0.00 0.00 0.00 0.01 0.00 0.03 0.10 0.08 0.05 0.04 0.07 0.07 0.07 0.06 0.04 0.02 0.01 0.00 0.00 0.00 0.00 0.00 0.00
0.00 0.00 0.00 0.00 0.00 0.00 0.00 0.00 0.00 0.00 0.00 0.00 0.00 0.00 0.03 0.15 0.11 0.08 0.03 0.00 0.00 0.00 0.00 0.01 0.07 0.30 0.14 0.03 0.04 0.04 0.04 0.04 0.03 0.02 0.01 0.00 0.00 0.00 0.00 0.00 0.00 0.00 0.00
0.00 0.00 0.00 0.00 0.00 0.00 0.00 0.00 0.00 0.00 0.00 0.00 0.00 0.01 0.03 0.09 0.13 0.13 0.14 0.03 0.01 0.03 0.02 0.09 0.12 0.14 0.04 0.02 0.02 0.01 0.00 0.00 0.00 0.00 0.00 0.00 0.00 0.00 0.00 0.00 0.00 0.00 0.00
0.00 0.00 0.00 0.00 0.00 0.00 0.00 0.00 0.00 0.00 0.00 0.00 0.00 0.00 0.00 0.01 0.01 0.02 0.03 0.00 0.01 0.01 0.02 0.03 0.03 0.02 0.01 0.01 0.00 0.00 0.00 0.00 0.00 0.00 0.00 0.00 0.00 0.00 0.00 0.00 0.00 0.00 0.00
0.00 0.00 0.00 0.00 0.00 0.00 0.00 0.00 0.00 0.00 0.00 0.00 0.00 0.00 0.00 0.00 0.00 0.00 0.00 0.00 0.00 0.00 0.00 0.00 0.00 0.00 0.00 0.00 0.00 0.00 0.00 0.00 0.00 0.00 0.00 0.00 0.00 0.00 0.00 0.00 0.00 0.00 0.00
0.00 0.00 0.00 0.00 0.00 0.00 0.00 0.00 0.00 0.00 0.00 0.00 0.00 0.00 0.00 0.00 0.00 0.00 0.00 0.00 0.00 0.00 0.00 0.00 0.00 0.00 0.00 0.00 0.00 0.00 0.00 0.00 0.00 0.00 0.00 0.00 0.00 0.00 0.00 0.00 0.00 0.00 0.00
0.00 0.00 0.00 0.00 0.00 0.00 0.00 0.00 0.00 0.00 0.00 0.00 0.00 0.00 0.00 0.00 0.00 0.00 0.00 0.00 0.00 0.00 0.00 0.00 0.00 0.00 0.00 0.00 0.00 0.00 0.00 0.00 0.00 0.00 0.00 0.00 0.00 0.00 0.00 0.00 0.00 0.00 0.00
0.00 0.00 0.00 0.00 0.00 0.00 0.00 0.00 0.00 0.00 0.00 0.00 0.00 0.00 0.00 0.00 0.00 0.00 0.00 0.00 0.00 0.00 0.00 0.00 0.00 0.00 0.00 0.00 0.00 0.00 0.00 0.00 0.00 0.00 0.00 0.00 0.00 0.00 0.00 0.00 0.00 0.00 0.00
0.00 0.00 0.00 0.00 0.00 0.00 0.00 0.00 0.00 0.00 0.00 0.00 0.00 0.00 0.00 0.00 0.00 0.00 0.00 0.00 0.00 0.00 0.00 0.00 0.00 0.00 0.00 0.00 0.00 0.00 0.00 0.00 0.00 0.00 0.00 0.00 0.00 0.00 0.00 0.00 0.00 0.00 0.00
0.00 0.00 0.00 0.00 0.00 0.00 0.00 0.00 0.00 0.00 0.00 0.00 0.00 0.00 0.00 0.00 0.00 0.00 0.00 0.00 0.00 0.00 0.00 0.00 0.00 0.00 0.00 0.00 0.00 0.00 0.00 0.00 0.00 0.00 0.00 0.00 0.00 0.00 0.00 0.00 0.00 0.00 0.00
0.00 0.00 0.00 0.00 0.00 0.00 0.00 0.00 0.00 0.00 0.00 0.00 0.00 0.00 0.00 0.00 0.00 0.00 0.00 0.00 0.00 0.00 0.00 0.00 0.00 0.00 0.00 0.00 0.00 0.00 0.00 0.00 0.00 0.00 0.00 0.00 0.00 0.00 0.00 0.00 0.00 0.00 0.00
0.00 0.00 0.00 0.00 0.00 0.00 0.00 0.00 0.00 0.00 0.00 0.00 0.00 0.00 0.00 0.00 0.00 0.00 0.00 0.00 0.00 0.00 0.00 0.00 0.00 0.00 0.00 0.00 0.00 0.00 0.00 0.00 0.00 0.00 0.00 0.00 0.00 0.00 0.00 0.00 0.00 0.00 0.00
0.00 0.00 0.00 0.00 0.00 0.00 0.00 0.00 0.00 0.00 0.00 0.00 0.00 0.00 0.00 0.00 0.00 0.00 0.00 0.00 0.00 0.00 0.00 0.00 0.00 0.00 0.00 0.00 0.00 0.00 0.00 0.00 0.00 0.00 0.00 0.00 0.00 0.00 0.00 0.00 0.00 0.00 0.00
0.00 0.00 0.00 0.00 0.00 0.00 0.00 0.00 0.00 0.00 0.00 0.00 0.00 0.00 0.00 0.00 0.00 0.00 0.00 0.00 0.00 0.00 0.00 0.00 0.00 0.00 0.00 0.00 0.00 0.00 0.00 0.00 0.00 0.00 0.00 0.00 0.00 0.00 0.00 0.00 0.00 0.00 0.00
0.00 0.00 0.00 0.00 0.00 0.00 0.00 0.00 0.00 0.00 0.00 0.00 0.00 0.00 0.00 0.00 0.00 0.00 0.00 0.00 0.00 0.00 0.00 0.00 0.00 0.00 0.00 0.00 0.00 0.00 0.00 0.00 0.00 0.00 0.00 0.00 0.00 0.00 0.00 0.00 0.00 0.00 0.00
0.00 0.00 0.00 0.00 0.00 0.00 0.00 0.00 0.00 0.00 0.00 0.00 0.00 0.00 0.00 0.00 0.00 0.00 0.00 0.00 0.00 0.00 0.00 0.00 0.00 0.00 0.00 0.00 0.00 0.00 0.00 0.00 0.00 0.00 0.00 0.00 0.00 0.00 0.00 0.00 0.00 0.00 0.00
0.00 0.00 0.00 0.00 0.00 0.00 0.00 0.00 0.00 0.00 0.00 0.00 0.00 0.00 0.00 0.00 0.00 0.00 0.00 0.00 0.00 0.00 0.00 0.00 0.00 0.00 0.00 0.00 0.00 0.00 0.00 0.00 0.00 0.00 0.00 0.00 0.00 0.00 0.00 0.00 0.00 0.01 0.01
0.00 0.00 0.00 0.00 0.00 0.00 0.00 0.00 0.00 0.00 0.00 0.00 0.00 0.00 0.00 0.00 0.00 0.00 0.00 0.00 0.00 0.00 0.00 0.00 0.00 0.00 0.00 0.00 0.00 0.00 0.00 0.00 0.00 0.00 0.00 0.00 0.01 0.03 0.05 0.05 0.06 0.07 0.06
0.00 0.00 0.00 0.00 0.00 0.00 0.00 0.00 0.00 0.00 0.00 0.00 0.00 0.00 0.00 0.00 0.00 0.00 0.00 0.00 0.00 0.00 0.00 0.00 0.00 0.00 0.00 0.00 0.00 0.00 0.00 0.00 0.00 0.00 0.02 0.06 0.13 0.16 0.16 0.15 0.15 0.12 0.08
0.00 0.00 0.00 0.00 0.00 0.00 0.00 0.00 0.00 0.00 0.00 0.00 0.00 0.00 0.00 0.00 0.00 0.00 0.00 0.00 0.00 0.00 0.00 0.00 0.00 0.00 0.00 0.00 0.00 0.00 0.00 0.00 0.00 0.00 0.02 0.06 0.11 0.13 0.15 0.18 0.20 0.14 0.07
0.00 0.00 0.00 0.00 0.00 0.00 0.00 0.00 0.00 0.00 0.00 0.00 0.00 0.00 0.00 0.00 0.00 0.01 0.01 0.00 0.00 0.00 0.00 0.00 0.00 0.00 0.00 0.00 0.00 0.00 0.00 0.00 0.00 0.00 0.02 0.04 0.08 0.15 0.21 0.21 0.16 0.09 0.03
MSLP
1007.92 1007.98 1008.14 1008.09 1008.26 1008.45 1008.33 1008.24 1008.38 1008.43 1008.49 1008.61 1008.80 1009.14 1009.53 1009.81 1010.14 1010.47 1010.74 1011.00 1011.26 1011.58 1011.93 1012.01 1012.37 1012.61 1012.99 1013.15 1013.55 1013.98 1014.24 1014.71 1015.07 1016.08 1016.49 1017.42 1018.21 1018.89 1019.81 1020.42 1020.90 1021.47 1022.07
1007.83 1007.97 1008.22 1008.19 1008.37 1008.55 1008.46 1008.40 1008.45 1008.45 1008.46 1008.59 1008.83 1009.13 1009.60 1010.00 1010.29 1010.58 1010.89 1011.19 1011.44 1011.75 1012.03 1012.29 1012.66 1012.78 1013.21 1013.52 1013.78 1014.14 1014.40 1014.67 1015.03 1015.92 1016.70 1017.66 1018.48 1019.40 1020.03 1020.64 1021.17 1021.58 1022.02
1007.79 1008.05 1008.38 1008.33 1008.58 1008.72 1008.64 1008.50 1008.48 1008.55 1008.68 1008.88 1009.04 1009.42 1009.88 1010.23 1010.55 1010.81 1011.10 1011.41 1011.70 1011.95 1012.28 1012.48 1012.88 1013.28 1013.57 1013.89 1014.19 1014.49 1014.84 1015.10 1015.60 1016.12 1017.17 1017.97 1018.88 1019.71 1020.42 1021.00 1021.45 1021.88 1022.04
1007.80 1008.19 1008.44 1008.43 1008.69 1008.80 1008.71 1008.59 1008.57 1008.71 1008.91 1009.10 1009.23 1009.59 1010.08 1010.42 1010.72 1010.93 1011.19 1011.54 1011.85 1012.19 1012.47 1012.72 1012.98 1013.44 1013.89 1014.12 1014.45 1014.83 1015.27 1015.69 1016.09 1016.78 1017.61 1018.26 1019.17 1019.93 1020.43 1021.17 1021.84 1022.09 1022.32
1007.81 1008.26 1008.48 1008.47 1008.73 1008.86 1008.75 1008.72 1008.77 1008.88 1009.18 1009.46 1009.62 1009.92 1010.31 1010.71 1011.01 1011.33 1011.61 1011.84 1012.15 1012.52 1012.79 1013.12 1013.42 1013.75 1014.07 1014.43 1014.70 1015.21 1015.60 1016.09 1016.66 1017.24 1017.66 1018.71 1019.57 1020.14 1020.66 1021.18 1021.46 1021.92 1022.51
1007.73 1008.17 1008.45 1008.55 1008.77 1009.01 1009.04 1009.04 1009.12 1009.27 1009.46 1009.57 1009.91 1010.14 1010.53 1011.07 1011.43 1011.71 1011.92 1012.22 1012.51 1012.78 1013.11 1013.52 1013.95 1014.29 1014.57 1014.90 1015.20 1015.63 1015.94 1016.36 1017.01 1017.52 1018.24 1018.87 1019.67 1020.09 1020.61 1020.81 1021.28 1022.06 1022.66
1007.57 1008.02 1008.42 1008.63 1008.83 1009.16 1009.29 1009.40 1009.51 1009.65 1009.73 1009.94 1010.06 1010.39 1010.78 1011.41 1011.76 1012.09 1012.41 1012.61 1012.90 1013.18 1013.48 1013.78 1014.21 1014.56 1014.92 1015.46 1015.90 1016.31 1016.60 1016.90 1017.16 1017.57 1018.01 1018.69 1019.32 1019.76 1020.18 1020.80 1021.22 1021.74 1022.26
1007.51 1007.91 1008.40 1008.69 1008.89 1009.31 1009.62 1009.83 1009.97 1010.10 1010.26 1010.36 1010.45 1010.67 1011.03 1011.37 1011.77 1012.22 1012.57 1012.87 1013.20 1013.51 1013.73 1014.12 1014.48 1015.10 1015.64 1015.81 1016.21 1016.61 1017.08 1017.60 1017.85 1017.74 1018.03 1018.45 1018.84 1019.36 1019.58 1020.13 1020.77 1021.70 1022.45
1007.32 1007.76 1008.25 1008.63 1008.90 1009.24 1009.76 1010.11 1010.32 1010.34 1010.63 1010.71 1010.89 1011.02 1011.41 1012.05 1012.11 1012.42 1012.61 1013.03 1013.31 1013.67 1013.96 1014.45 1014.79 1015.45 1015.80 1016.10 1016.47 1016.92 1017.43 1017.94 1018.38 1018.34 1018.51 1018.84 1019.04 1019.30 1019.51 1019.99 1020.72 1021.31 1022.44
1006.90 1007.35 1007.88 1008.40 1008.81 1009.23 1009.63 1010.05 1010.47 1010.65 1010.85 1011.05 1011.31 1011.59 1011.84 1012.27 1012.57 1012.80 1013.07 1013.27 1013.68 1014.03 1014.59 1015.04 1015.38 1015.74 1016.16 1016.52 1016.88 1017.22 1017.53 1018.03 1018.33 1018.73 1019.00 1019.25 1019.39 1019.89 1020.02 1019.87 1020.58 1021.26 1022.25
1006.41 1007.07 1007.73 1008.23 1008.66 1009.11 1009.64 1010.09 1010.59 1010.93 1011.17 1011.51 1011.77 1012.07 1012.32 1012.60 1012.98 1013.15 1013.30 1013.56 1013.88 1014.40 1014.92 1015.51 1015.89 1016.25 1016.66 1016.92 1017.13 1017.43 1017.58 1018.02 1018.79 1019.15 1019.52 1019.82 1020.19 1020.42 1020.56 1020.64 1020.90 1020.93 1021.77
1006.08 1006.82 1007.49 1008.12 1008.57 1009.18 1009.62 1010.26 1010.76 1011.08 1011.53 1011.93 1012.23 1012.58 1012.77 1012.96 1013.16 1013.44 1013.64 1013.78 1014.14 1014.48 1015.02 1015.57 1016.04 1016.42 1016.69 1016.94 1017.34 1017.66 1018.03 1018.43 1018.98 1019.40 1019.71 1020.23 1020.62 1020.98 1021.36 1021.46 1021.71 1021.86 1022.25
1005.86 1006.53 1007.21 1007.93 1008.50 1009.08 1009.61 1010.23 1010.93 1011.30 1011.71 1012.30 1012.50 1012.84 1013.22 1013.48 1013.58 1013.74 1013.93 1014.19 1014.50 1014.83 1015.20 1015.62 1016.11 1016.50 1016.82 1017.13 1017.58 1017.84 1018.09 1018.61 1019.02 1019.43 1019.90 1020.42 1021.03 1021.62 1022.00 1022.34 1022.74 1022.87 1023.16
1005.49 1006.30 1006.98 1007.74 1008.45 1009.05 1009.55 1009.98 1010.60 1011.26 1011.79 1012.17 1012.60 1012.94 1013.31 1013.63 1013.96 1014.21 1014.45 1014.73 1014.93 1015.20 1015.67 1016.21 1016.50 1016.84 1017.12 1017.25 1017.70 1018.01 1018.16 1018.48 1018.81 1019.30 1020.02 1020.80 1021.53 1021.97 1022.28 1022.47 1022.83 1023.10 1023.50
1005.00 1005.90 1006.72 1007.40 1008.04 1008.84 1009.41 1009.84 1010.23 1010.59 1010.86 1011.56 1011.98 1012.37 1012.96 1013.49 1013.70 1013.98 1014.33 1014.80 1015.04 1015.45 1016.10 1016.61 1016.94 1017.20 1017.37 1017.61 1017.87 1018.17 1018.40 1018.71 1019.04 1019.58 1020.12 1020.68 1021.31 1021.88 1022.41 1022.64 1022.83 1023.37 1024.00
1004.47 1005.43 1006.16 1006.89 1007.68 1008.29 1009.05 1009.95 1010.23 1010.37 1010.74 1011.02 1011.24 1011.76 1012.45 1012.65 1013.10 1013.66 1014.15 1014.63 1015.00 1015.36 1015.93 1016.35 1016.65 1016.81 1017.00 1017.24 1017.59 1017.94 1018.21 1018.46 1018.79 1019.33 1019.86 1020.21 1020.69 1021.35 1022.01 1022.73 1023.07 1023.49 1024.22
1003.19 1004.47 1005.44 1006.18 1006.92 1007.67 1008.40 1009.03 1009.80 1010.55 1010.63 1010.98 1011.33 1011.52 1011.79 1012.20 1012.82 1013.37 1013.95 1014.57 1014.92 1015.33 1015.42 1015.82 1016.03 1016.33 1016.61 1016.85 1017.05 1017.28 1017.72 1018.23 1018.75 1019.13 1019.44 1019.86 1020.40 1021.09 1021.87 1022.63 1023.32 1023.92 1024.72
1002.42 1003.40 1004.46 1005.38 1006.07 1006.77 1007.47 1008.10 1008.66 1009.36 1010.12 1010.77 1011.06 1011.35 1011.71 1012.10 1012.38 1012.80 1013.68 1014.50 1015.41 1015.47 1015.11 1015.14 1015.33 1015.58 1015.95 1016.29 1016.62 1016.97 1017.55 1018.16 1018.63 1019.03 1019.60 1020.11 1020.47 1020.91 1021.66 1022.32 1022.97 1023.63 1024.56
1001.69 1002.78 1003.55 1004.44 1005.25 1005.90 1006.60 1007.23 1007.83 1008.37 1008.92 1009.56 1010.54 1011.16 1011.44 1011.90 1012.36 1012.82 1013.23 1013.09 1013.75 1014.21 1014.32 1014.39 1014.43 1014.76 1015.23 1015.61 1016.01 1016.48 1016.88 1017.37 1017.77 1018.31 1018.82 1019.43 1020.44 1020.94 1021.49 1022.15 1022.86 1023.43 1024.20
1000.74 1001.59 1002.61 1003.56 1004.51 1005.31 1005.90 1006.43 1007.02 1007.54 1008.11 1008.63 1009.36 1009.81 1010.90 1011.74 1012.18 1012.35 1012.58 1012.53 1012.59 1012.69 1012.89 1013.15 1013.51 1013.91 1014.29 1014.69 1015.17 1015.65 1016.27 1016.96 1017.49 1017.89 1018.18 1018.57 1019.14 1019.92 1020.78 1021.62 1022.56 1023.42 1024.03
999.65 1000.87 1001.73 1002.73 1003.51 1004.11 1004.83 1005.40 1005.99 1006.55 1007.02 1007.53 1007.90 1008.57 1008.88 1009.81 1010.21 1010.69 1010.99 1011.19 1011.31 1011.50 1011.79 1012.11 1012.39 1012.75 1013.22 1013.72 1014.26 1014.82 1015.34 1015.90 1016.43 1017.02 1017.65 1018.55 1019.31 1019.99 1020.61 1021.28 1022.82 1023.22 1024.30
998.73 999.86 1000.85 1001.66 1002.44 1003.17 1003.65 1004.26 1004.86 1005.39 1005.92 1006.48 1006.98 1007.86 1008.34 1008.92 1009.00 1009.26 1009.52 1009.73 1010.04 1010.34 1010.62 1010.96 1011.26 1011.51 1011.81 1012.27 1012.85 1013.56 1014.14 1014.77 1015.56 1016.26 1017.14 1017.88 1018.78 1019.21 1020.02 1021.73 1022.34 1023.74 1024.19
998.19 999.17 1000.02 1000.72 1001.41 1002.11 1003.01 1003.46 1003.87 1004.26 1004.71 1005.29 1005.97 1006.87 1007.71 1007.83 1007.82 1007.84 1007.92 1008.28 1008.80 1009.21 1009.55 1009.93 1010.25 1010.52 1010.77 1011.07 1011.47 1011.88 1012.56 1013.22 1013.68 1014.28 1015.26 1016.56 1017.69 1018.97 1020.51 1021.38 1022.07 1023.57 1024.62
997.32 998.17 998.97 999.60 1000.59 1001.20 1001.78 1002.36 1002.88 1003.34 1003.74 1004.16 1004.64 1005.18 1005.99 1006.55 1006.63 1006.48 1006.66 1007.12 1007.47 1007.76 1008.17 1008.59 1008.95 1009.22 1009.60 1009.93 1010.31 1010.62 1011.09 1011.79 1012.48 1013.86 1014.79 1015.75 1017.35 1018.45 1019.46 1021.23 1022.52 1022.92 1023.60
996.96 997.52 998.26 998.82 999.52 1000.17 1000.72 1001.19 1001.69 1002.07 1002.69 1003.36 1003.85 1004.01 1004.26 1004.63 1005.24 1005.65 1005.87 1006.12 1006.45 1006.85 1007.02 1007.18 1007.43 1007.66 1008.00 1008.40 1008.82 1009.47 1010.39 1011.22 1011.80 1013.11 1014.34 1015.33 1016.55 1017.96 1019.27 1020.33 1022.25 1023.38 1023.94
996.36 996.77 997.62 998.32 998.75 999.48 999.84 1000.33 1000.67 1001.23 1001.59 1001.94 1002.49 1002.91 1003.18 1003.65 1003.71 1004.26 1005.14 1005.48 1005.66 1005.79 1005.96 1006.31 1006.51 1006.77 1007.12 1007.71 1008.41 1009.21 1010.07 1010.85 1011.75 1012.60 1013.83 1015.14 1016.56 1018.07 1018.84 1020.27 1021.49 1022.49 1023.88
Thickness
5654 5651 5647 5644 5639 5633 5631 5627 5623 5623 5622 5621 5619 5617 5616 5615 5614 5615 5615 5616 5617 5618 5619 5623 5622 5622 5623 5624 5624 5623 5624 5625 5625 5624 5628 5625 5621 5619 5616 5617 5618 5617 5616
5656 5653 5647 5644 5639 5634 5632 5629 5627 5627 5627 5625 5624 5622 5619 5618 5618 5618 5617 5618 5618 5618 5620 5622 5622 5624 5625 5625 5626 5625 5626 5629 5630 5627 5625 5621 5620 5616 5615 5616 5616 5616 5615
5657 5652 5646 5643 5637 5633 5632 5631 5631 5630 5628 5627 5626 5624 5620 5619 5618 5619 5619 5619 5619 5621 5622 5624 5623 5623 5625 5625 5626 5626 5626 5628 5628 5627 5621 5620 5617 5616 5613 5613 5614 5613 5614
5658 5651 5647 5643 5637 5635 5635 5634 5633 5632 5630 5629 5628 5625 5622 5620 5620 5621 5621 5620 5621 5622 5624 5624 5625 5624 5623 5625 5626 5625 5624 5623 5624 5621 5619 5618 5615 5614 5614 5612 5610 5611 5612
5658 5651 5647 5644 5640 5638 5638 5638 5637 5635 5632 5629 5627 5625 5623 5620 5619 5619 5618 5619 5620 5622 5623 5623 5623 5624 5623 5624 5625 5624 5623 5621 5620 5616 5619 5616 5612 5613 5614 5612 5614 5612 5611
5660 5654 5649 5647 5644 5642 5640 5639 5638 5636 5634 5631 5628 5625 5621 5619 5615 5616 5618 5618 5619 5621 5622 5622 5620 5619 5619 5620 5620 5620 5621 5621 5618 5618 5616 5615 5613 5615 5613 5616 5614 5612 5611
5662 5657 5653 5650 5647 5643 5641 5639 5638 5637 5635 5633 5629 5625 5620 5616 5613 5614 5615 5617 5617 5618 5620 5621 5620 5619 5619 5617 5615 5614 5616 5617 5619 5619 5619 5618 5617 5617 5617 5615 5616 5617 5616
5664 5661 5656 5653 5650 5646 5643 5640 5638 5637 5636 5633 5631 5626 5624 5621 5614 5613 5615 5617 5617 5618 5619 5620 5620 5618 5616 5616 5615 5615 5616 5617 5618 5622 5622 5620 5620 5622 5625 5625 5622 5617 5611
5668 5665 5661 5658 5654 5650 5647 5644 5641 5640 5637 5635 5633 5631 5628 5621 5618 5614 5619 5619 5620 5620 5620 5620 5620 5618 5617 5618 5619 5618 5618 5618 5618 5623 5625 5626 5628 5630 5629 5626 5621 5618 5609
5674 5671 5667 5663 5659 5654 5651 5648 5644 5642 5641 5639 5636 5634 5630 5627 5622 5622 5623 5623 5622 5622 5621 5620 5620 5621 5620 5621 5622 5621 5623 5622 5623 5623 5625 5626 5627 5625 5624 5624 5620 5616 5606
5681 5676 5671 5667 5663 5660 5655 5651 5648 5645 5643 5640 5638 5635 5634 5633 5629 5628 5630 5629 5628 5626 5625 5624 5624 5623 5623 5623 5625 5626 5628 5626 5622 5623 5621 5620 5617 5616 5616 5617 5613 5614 5607
5685 5680 5675 5670 5667 5662 5659 5653 5649 5647 5644 5641 5639 5637 5636 5635 5635 5632 5634 5635 5633 5632 5631 5629 5628 5626 5626 5626 5626 5625 5623 5623 5620 5618 5617 5614 5612 5610 5608 5607 5604 5601 5596
5687 5683 5678 5674 5670 5666 5662 5657 5652 5649 5647 5642 5642 5641 5638 5636 5637 5635 5636 5636 5636 5636 5635 5633 5629 5628 5627 5626 5625 5624 5623 5621 5620 5619 5617 5612 5607 5602 5598 5594 5590 5587 5583
5689 5685 5681 5677 5672 5667 5665 5663 5659 5654 5650 5649 5646 5644 5642 5640 5639 5638 5638 5637 5636 5635 5631 5628 5627 5627 5626 5626 5624 5622 5623 5622 5620 5617 5611 5604 5597 5594 5591 5589 5584 5580 5576
5693 5688 5683 5680 5677 5671 5668 5666 5665 5663 5662 5657 5655 5653 5649 5646 5646 5644 5643 5641 5640 5636 5631 5628 5627 5626 5625 5624 5623 5621 5620 5617 5616 5610 5605 5601 5596 5590 5584 5581 5578 5571 5564
5696 5690 5687 5684 5679 5677 5672 5667 5662 5666 5663 5661 5661 5660 5656 5656 5652 5648 5644 5642 5638 5635 5633 5631 5630 5629 5629 5626 5623 5620 5618 5616 5614 5609 5605 5601 5596 5588 5581 5574 5569 5564 5555
5705 5696 5691 5687 5684 5680 5677 5674 5670 5665 5663 5661 5660 5660 5661 5661 5654 5650 5646 5641 5638 5636 5639 5634 5633 5630 5628 5625 5624 5622 5620 5615 5610 5606 5602 5597 5591 5584 5576 5568 5560 5552 5542
5707 5699 5696 5691 5688 5685 5682 5679 5678 5674 5670 5667 5661 5661 5658 5657 5656 5653 5646 5639 5632 5632 5637 5637 5635 5632 5629 5626 5623 5620 5616 5610 5605 5600 5593 5587 5582 5577 5569 5562 5554 5546 5535
5709 5703 5700 5695 5691 5688 5685 5683 5680 5678 5676 5674 5664 5659 5657 5654 5652 5649 5646 5652 5647 5641 5639 5638 5638 5635 5631 5627 5623 5619 5614 5609 5604 5597 5591 5584 5573 5566 5560 5552 5543 5534 5524
5712 5706 5702 5697 5692 5688 5685 5683 5681 5679 5676 5675 5672 5673 5659 5654 5654 5653 5649 5650 5651 5650 5647 5645 5641 5638 5634 5630 5625 5620 5613 5605 5599 5594 5589 5582 5574 5565 5555 5546 5535 5524 5516
5718 5707 5701 5698 5694 5692 5688 5685 5683 5681 5679 5678 5678 5676 5669 5670 5669 5664 5658 5655 5655 5654 5651 5648 5645 5641 5636 5631 5626 5620 5614 5607 5601 5594 5586 5574 5565 5556 5548 5539 5522 5516 5503
5720 5711 5705 5701 5697 5694 5693 5689 5686 5684 5682 5679 5678 5675 5664 5670 5671 5668 5665 5662 5659 5655 5652 5649 5647 5644 5640 5635 5629 5621 5615 5607 5597 5588 5580 5571 5562 5556 5544 5526 5517 5502 5494
5717 5710 5705 5702 5699 5693 5689 5689 5688 5687 5686 5683 5679 5673 5664 5668 5670 5669 5669 5666 5661 5657 5653 5649 5646 5643 5639 5634 5629 5624 5617 5608 5600 5594 5585 5572 5561 5546 5529 5517 5508 5492 5479
5716 5711 5707 5705 5699 5696 5694 5691 5688 5682 5685 5685 5682 5679 5672 5666 5667 5670 5669 5665 5662 5660 5657 5652 5648 5645 5639 5634 5629 5624 5618 5609 5596 5585 5577 5568 5552 5539 5526 5508 5493 5485 5477
5709 5707 5704 5704 5701 5697 5695 5694 5691 5690 5686 5681 5679 5680 5679 5676 5670 5667 5665 5664 5661 5657 5655 5654 5652 5649 5644 5639 5634 5626 5616 5607 5598 5584 5571 5561 5548 5534 5518 5504 5483 5470 5461
5703 5704 5700 5698 5699 5695 5695 5692 5691 5688 5688 5686 5683 5680 5680 5675 5674 5669 5660 5658 5657 5656 5654 5651 5649 5645 5641 5635 5627 5619 5610 5601 5590 5579 5565 5552 5538 5522 5511 5495 5479 5467 5453